Weather History for KELP - October, 2011

Change the Weather History Date:

Wednesday, October 26, 2011

  Actual Average Record
Temperature  
Mean Temperature 72 °F 62 °F  
Max Temperature 85 °F 75 °F 90 °F (1979)
Min Temperature 59 °F 48 °F 34 °F (1981)
Degree Days  
Heating Degree Days 0 4  
Month to date heating degree days 9 53  
Since 1 July heating degree days 9 57  
Cooling Degree Days 7 1  
Month to date cooling degree days 138 79  
Year to date cooling degree days 3135 2325  
Growing Degree Days 22 (Base 50)    
Moisture  
Dew Point 39 °F    
Average Humidity 33    
Maximum Humidity 48    
Minimum Humidity 17    
Precipitation  
Precipitation 0.01 in 0.02 in 0.89 in (1984)
Month to date precipitation 0.01 0.52  
Year to date precipitation 4.30 8.35  
Snow  
Snow 0.00 in - - ()
Month to date snowfall 0.0  
Since 1 July snowfall 0.0  
Since 1 September snowfall 0.0  
Snow Depth 0.00 in    
Sea Level Pressure  
Sea Level Pressure 29.73 in    
Wind  
Wind Speed 11 mph (SW)    
Max Wind Speed 33 mph    
Max Gust Speed 40 mph    
Visibility 10 miles    
Events Rain , Thunderstorm    
T = Trace of Precipitation, MM = Missing Value Source: NWS Daily Summary

Daily Weather History Graph

Daily Weather History Graph

Search for Another Location

Airport or City:

Trip Planner

Search our weather history database for the weather conditions in past years. The results will help you decide how hot, cold, wet, or windy it might be!

Date:

Astronomy

Oct. 26, 2011 Rise Set
Actual Time 7:16 AM MDT 6:21 PM MDT
Civil Twilight 6:51 AM MDT 6:46 PM MDT
Nautical Twilight 6:23 AM MDT 7:15 PM MDT
Astronomical Twilight 5:54 AM MDT 7:43 PM MDT
Moon 7:04 AM MDT (10/26) 6:10 PM MDT (10/26)
Length of Visible Light 11h 54m
Length of Day
11h 04m
Waning Crescent, 0% of the Moon is Illuminated
Oct 26
Waning Crescent
Oct 26
New
Nov 2
First Quarter
Nov 10
Full
Nov 18
Last Quarter

Hourly Weather History & Observations

Time (MDT) Temp. Dew Point Humidity Pressure Visibility Wind Dir Wind Speed Gust Speed Precip Events Conditions
12:51 AM 72.0 °F 34.0 °F 25% 29.80 in 10.0 mi Calm Calm - N/A   Scattered Clouds
1:51 AM 64.0 °F 37.0 °F 37% 29.81 in 10.0 mi SE 6.9 mph - N/A   Scattered Clouds
2:51 AM 63.0 °F 42.1 °F 46% 29.80 in 10.0 mi SSE 6.9 mph - N/A   Scattered Clouds
3:51 AM 64.9 °F 39.0 °F 39% 29.79 in 10.0 mi SSW 8.1 mph - N/A   Scattered Clouds
4:51 AM 66.0 °F 35.1 °F 32% 29.79 in 10.0 mi WSW 9.2 mph - N/A   Scattered Clouds
5:51 AM 63.0 °F 35.1 °F 35% 29.80 in 10.0 mi SW 6.9 mph - N/A   Scattered Clouds
6:51 AM 62.1 °F 37.9 °F 41% 29.82 in 10.0 mi South 9.2 mph - N/A   Scattered Clouds
7:51 AM 60.8 °F 39.2 °F 45% 30.01 in 10.0 mi SSE 6.9 mph - N/A   Scattered Clouds
8:51 AM 66.0 °F 43.0 °F 43% 29.84 in 10.0 mi South 5.8 mph - N/A   Scattered Clouds
9:51 AM 69.1 °F 44.1 °F 40% 29.83 in 10.0 mi SSE 8.1 mph - N/A   Partly Cloudy
10:51 AM 73.0 °F 45.0 °F 37% 29.81 in 10.0 mi South 10.4 mph - N/A   Partly Cloudy
11:51 AM 79.0 °F 39.9 °F 25% 29.77 in 10.0 mi SSW 9.2 mph 18.4 mph N/A   Scattered Clouds
12:51 PM 81.0 °F 37.9 °F 21% 29.72 in 10.0 mi SSW 19.6 mph 26.5 mph N/A   Scattered Clouds
1:51 PM 80.1 °F 41.0 °F 25% 29.70 in 10.0 mi SSW 9.2 mph - N/A   Scattered Clouds
2:51 PM 82.9 °F 41.0 °F 23% 29.65 in 10.0 mi SSW 12.7 mph 26.5 mph N/A   Scattered Clouds
3:51 PM 82.9 °F 39.9 °F 22% 29.61 in 10.0 mi SSW 18.4 mph 29.9 mph N/A   Scattered Clouds
4:51 PM 84.0 °F 36.0 °F 18% 29.58 in 10.0 mi SW 13.8 mph 24.2 mph N/A   Scattered Clouds
5:51 PM 82.9 °F 34.0 °F 17% 29.57 in 10.0 mi SW 19.6 mph 34.5 mph N/A   Scattered Clouds
6:51 PM 80.1 °F 34.0 °F 19% 29.59 in 10.0 mi WSW 17.3 mph 24.2 mph N/A   Scattered Clouds
7:51 PM 80.1 °F 35.1 °F 20% 29.61 in 10.0 mi SW 15.0 mph 21.9 mph N/A   Scattered Clouds
8:51 PM 77.0 °F 36.0 °F 23% 29.60 in 10.0 mi WSW 11.5 mph - N/A   Scattered Clouds
9:51 PM 75.9 °F 37.9 °F 25% 29.60 in 10.0 mi West 15.0 mph - N/A   Scattered Clouds
10:12 PM 69.8 °F 42.8 °F 38% 29.82 in 8.0 mi WNW 23.0 mph 34.5 mph 0.00 in Rain , Thunderstorm Thunderstorms and Rain
10:29 PM 66.2 °F 46.4 °F 49% 29.82 in 10.0 mi NW 19.6 mph 25.3 mph 0.00 in   Scattered Clouds
10:51 PM 68.0 °F 43.0 °F 40% 29.66 in 10.0 mi West 8.1 mph 16.1 mph 0.01 in   Scattered Clouds
11:51 PM 66.9 °F 39.0 °F 36% 29.66 in 10.0 mi NW 12.7 mph - N/A   Scattered Clouds